FW8057 Weather Reports


time (UTC)temp
C
wind
direction
speed
KPH
gust
KPH
rain 1hr
cm
rain 24hr
cm
rain mn
cm
humidity
%
barometer
mb
20260503060256 7 223 0.0 0.0 0.00 0.00 0.00 95 1014.1
20260503054743 7 214 0.0 0.0 0.00 0.00 0.00 95 1014.2
20260503054240 7 213 0.0 0.0 0.00 0.00 0.00 95 1014.2
20260503053738 7 214 0.0 0.0 0.00 0.00 0.00 95 1014.0
20260503053237 7 214 0.0 0.0 0.00 0.00 0.00 95 1013.8
20260503052732 7 212 0.0 0.0 0.00 0.00 0.00 95 1014.0
20260503052229 7 211 0.0 0.0 0.00 0.00 0.00 95 1014.0
20260503051724 8 211 0.0 0.0 0.00 0.00 0.00 95 1014.3
20260503051222 8 211 0.0 0.0 0.00 0.00 0.00 95 1014.2
20260503050719 8 211 0.0 0.0 0.00 0.00 0.00 95 1014.2
20260503050215 8 211 0.0 0.0 0.00 0.00 0.00 95 1014.3
20260503045713 8 212 0.0 0.0 0.00 0.00 0.00 95 1014.2
20260503045210 8 212 0.0 0.0 0.00 0.00 0.00 95 1014.5
20260503044707 8 212 0.0 0.0 0.00 0.00 0.00 95 1014.2
20260503044204 8 211 0.0 0.0 0.00 0.00 0.00 95 1014.4
20260503043700 8 210 0.0 0.0 0.00 0.00 0.00 95 1014.1
20260503043158 8 209 0.0 0.0 0.00 0.00 0.00 95 1014.3
20260503042654 8 209 0.0 0.0 0.00 0.00 0.00 95 1014.0
20260503042150 8 209 0.0 0.0 0.00 0.00 0.00 95 1014.0
20260503041647 8 209 0.0 0.0 0.00 0.00 0.00 95 1014.1
20260503041144 8 209 0.0 0.0 0.00 0.00 0.00 95 1014.0
20260503040642 8 209 0.0 0.0 0.00 0.00 0.00 95 1014.0
20260503040139 8 209 0.0 0.0 0.00 0.00 0.00 95 1013.8
20260503035635 8 209 0.0 0.0 0.00 0.71 0.71 95 1013.9
20260503035133 8 209 0.0 0.0 0.00 0.71 0.71 95 1013.9
20260503034631 8 210 0.0 0.0 0.00 0.71 0.71 95 1013.8
20260503034128 8 209 0.0 0.0 0.00 0.71 0.71 95 1013.7
20260503033624 8 209 0.0 0.0 0.00 0.71 0.71 95 1013.7
20260503033122 8 209 0.0 0.0 0.00 0.71 0.71 95 1013.6
20260503032620 8 209 0.0 0.0 0.00 0.71 0.71 95 1013.6
20260503032119 8 182 0.0 0.0 0.00 0.71 0.71 95 1013.5
20260503031616 8 182 0.0 0.0 0.00 0.71 0.71 95 1013.5
20260503031113 8 182 0.0 0.0 0.00 0.71 0.71 95 1013.4
20260503030609 8 182 0.0 0.0 0.00 0.71 0.71 95 1013.3
20260503030106 8 182 0.0 0.0 0.00 0.71 0.71 95 1013.4
20260503025603 8 182 0.0 0.0 0.00 0.71 0.71 95 1013.4
20260503025101 8 182 0.0 0.0 0.00 0.71 0.71 95 1013.5
20260503024556 8 182 0.0 0.0 0.00 0.71 0.71 95 1013.3
20260503024054 8 182 0.0 0.0 0.00 0.71 0.71 95 1013.3
20260503023550 8 182 0.0 0.0 0.00 0.71 0.71 95 1013.3
20260503023048 9 182 0.0 0.0 0.00 0.71 0.71 95 1013.2
20260503022544 9 182 0.0 0.0 0.00 0.71 0.71 95 1013.2
20260503022039 9 182 0.0 0.0 0.00 0.71 0.71 95 1013.0
20260503021536 9 182 0.0 0.0 0.00 0.71 0.71 95 1013.0
20260503021033 9 181 0.0 1.6 0.00 0.71 0.71 95 1012.8
20260503020530 9 182 0.0 0.0 0.00 0.71 0.71 95 1013.1
20260503020027 9 182 0.0 0.0 0.00 0.71 0.71 95 1013.0
20260503015523 9 182 0.0 0.0 0.00 0.71 0.71 95 1013.2
20260503015021 9 182 0.0 0.0 0.00 0.71 0.71 95 1013.1
20260503014516 9 182 0.0 0.0 0.00 0.71 0.71 95 1013.3
20260503014015 9 182 0.0 0.0 0.00 0.71 0.71 95 1012.8
20260503013512 9 182 0.0 0.0 0.00 0.71 0.71 95 1013.1
20260503013009 9 182 0.0 0.0 0.00 0.71 0.71 95 1013.0
20260503012507 9 182 0.0 0.0 0.00 0.71 0.71 94 1012.8
20260503012003 9 182 0.0 0.0 0.00 0.71 0.71 94 1012.8
20260503011500 10 182 0.0 0.0 0.00 0.71 0.71 94 1012.7
20260503010957 10 182 0.0 0.0 0.00 0.71 0.71 94 1012.6
20260503010453 10 182 0.0 0.0 0.00 0.71 0.71 94 1012.5
20260503005950 10 182 0.0 0.0 0.00 0.71 0.71 94 1012.4
20260503005447 10 182 0.0 0.0 0.00 0.71 0.71 93 1012.4
20260503004944 10 182 0.0 0.0 0.00 0.71 0.71 93 1012.2
20260503004441 10 182 0.0 0.0 0.00 0.71 0.71 93 1012.1
20260503003939 10 182 0.0 0.0 0.00 0.71 0.71 93 1012.1
20260503003435 11 182 0.0 0.0 0.00 0.71 0.71 93 1012.0
20260503002932 11 182 0.0 0.0 0.00 0.71 0.71 92 1012.0
20260503002429 11 182 0.0 0.0 0.00 0.71 0.71 92 1011.8
20260503001926 11 182 0.0 0.0 0.00 0.71 0.71 92 1011.9
20260503001422 11 182 0.0 0.0 0.00 0.71 0.71 92 1011.7
20260503000920 11 182 0.0 0.0 0.00 0.71 0.71 92 1011.6
20260503000417 11 182 0.0 0.0 0.00 0.71 0.71 92 1011.5
20260502235914 11 182 0.0 0.0 0.00 0.71 0.71 92 1011.4
20260502235411 12 182 0.0 0.0 0.00 0.71 0.71 91 1011.4
20260502234908 12 182 0.0 0.0 0.00 0.71 0.71 91 1011.3
20260502234405 12 182 0.0 0.0 0.00 0.71 0.71 91 1011.0
20260502233902 12 181 0.0 0.0 0.00 0.71 0.71 91 1011.2
20260502233357 12 181 0.0 0.0 0.00 0.71 0.71 90 1011.3
20260502232855 12 181 0.0 0.0 0.00 0.71 0.71 90 1011.2
20260502232351 12 181 0.0 0.0 0.00 0.71 0.71 89 1011.3
20260502231847 12 181 0.0 0.0 0.00 0.71 0.71 89 1011.2
20260502231345 12 181 0.0 0.0 0.00 0.71 0.71 89 1011.2
20260502230843 12 181 0.0 0.0 0.00 0.71 0.71 89 1011.3
20260502230341 12 181 0.0 0.0 0.00 0.71 0.71 89 1011.2
20260502225838 12 181 0.0 0.0 0.00 0.71 0.71 88 1011.1
20260502225334 12 181 0.0 0.0 0.00 0.71 0.71 88 1011.0
20260502224831 12 181 0.0 0.0 0.00 0.71 0.71 88 1011.3
20260502224327 12 181 0.0 0.0 0.00 0.71 0.71 88 1011.0
20260502223825 12 181 0.0 0.0 0.00 0.71 0.71 87 1010.9
20260502223323 12 181 0.0 0.0 0.00 0.71 0.71 87 1011.3
20260502222821 12 181 0.0 0.0 0.00 0.71 0.71 87 1011.1
20260502222318 12 181 0.0 0.0 0.00 0.71 0.71 87 1011.2
20260502221814 12 181 0.0 0.0 0.00 0.71 0.71 87 1011.0
20260502221310 12 186 0.0 0.0 0.00 0.71 0.71 87 1011.2
20260502220807 12 186 0.0 0.0 0.00 0.71 0.71 87 1011.1
20260502220303 12 186 0.0 0.0 0.00 0.71 0.71 87 1010.7
20260502215800 12 162 0.0 0.0 0.00 0.71 0.71 86 1010.7
20260502215257 12 200 0.0 0.0 0.00 0.71 0.71 87 1010.9
20260502214754 12 188 0.0 0.0 0.00 0.71 0.71 87 1010.7
20260502214250 12 187 0.0 0.0 0.00 0.71 0.71 86 1010.7
20260502213748 12 195 0.0 0.0 0.00 0.71 0.71 86 1010.9
20260502213245 12 171 0.0 1.6 0.00 0.71 0.71 85 1010.7
20260502212743 12 184 0.0 0.0 0.00 0.71 0.71 87 1010.9
20260502212236 12 188 0.0 0.0 0.00 0.71 0.71 86 1010.8
20260502211731 12 61 3.2 3.2 0.00 0.71 0.71 85 1010.7
20260502211229 12 182 0.0 1.6 0.00 0.71 0.71 86 1010.8
20260502210726 12 189 0.0 0.0 0.00 0.71 0.71 86 1010.8
20260502210223 12 198 0.0 0.0 0.00 0.71 0.71 86 1010.8
20260502205720 12 188 1.6 1.6 0.00 0.71 0.71 86 1010.9
20260502205216 12 187 0.0 1.6 0.00 0.71 0.71 86 1010.8
20260502204714 12 116 1.6 3.2 0.00 0.71 0.71 85 1010.9
20260502204211 12 187 1.6 3.2 0.00 0.71 0.71 86 1011.0
20260502203709 12 153 1.6 1.6 0.00 0.71 0.71 86 1011.0
20260502203206 12 238 3.2 3.2 0.00 0.71 0.71 86 1011.1
20260502202700 12 70 1.6 3.2 0.00 0.71 0.71 87 1010.7
20260502202159 12 190 1.6 1.6 0.00 0.71 0.71 87 1011.0
20260502201656 12 178 4.8 4.8 0.00 0.71 0.71 87 1011.0
20260502201152 12 101 1.6 1.6 0.00 0.71 0.71 87 1011.0
20260502200648 12 186 1.6 3.2 0.00 0.71 0.71 87 1011.0
20260502200144 12 45 4.8 8.0 0.00 0.71 0.71 87 1010.8
20260502195643 12 197 0.0 1.6 0.00 0.71 0.71 88 1010.8
20260502195139 12 117 4.8 4.8 0.00 0.71 0.71 88 1011.0
20260502194636 12 42 1.6 3.2 0.00 0.71 0.71 88 1011.0
20260502194132 12 141 1.6 3.2 0.00 0.71 0.71 88 1011.1
20260502193623 12 187 1.6 1.6 0.00 0.71 0.71 88 1011.0
20260502193120 12 148 1.6 1.6 0.00 0.71 0.71 88 1011.1
20260502192616 12 143 1.6 1.6 0.00 0.71 0.71 89 1011.5
20260502192114 12 166 1.6 1.6 0.00 0.71 0.71 88 1011.4
20260502191610 12 19 3.2 3.2 0.00 0.71 0.71 88 1011.5
20260502191108 11 106 3.2 3.2 0.00 0.71 0.71 89 1011.7
20260502190605 12 212 3.2 3.2 0.00 0.71 0.71 90 1011.5
20260502185556 11 83 4.8 8.0 0.00 0.71 0.71 91 1011.6
20260502185053 11 78 4.8 4.8 0.00 0.71 0.71 92 1011.4
20260502184550 12 64 3.2 4.8 0.00 0.71 0.71 93 1011.5
20260502184045 12 154 1.6 1.6 0.00 0.71 0.71 93 1011.7
20260502183542 11 221 1.6 1.6 0.00 0.71 0.71 93 1011.6
20260502183038 11 191 0.0 1.6 0.00 0.71 0.71 94 1011.6
20260502182533 11 176 1.6 3.2 0.00 0.71 0.71 94 1011.8
20260502182029 11 47 4.8 4.8 0.00 0.71 0.71 94 1011.8
20260502181528 11 70 3.2 3.2 0.00 0.71 0.71 94 1011.8
20260502181026 11 136 1.6 1.6 0.00 0.71 0.71 94 1012.0
20260502180522 11 190 0.0 0.0 0.00 0.71 0.71 94 1012.1
20260502170436 11 311 3.2 4.8 0.00 0.66 0.66 95 1012.1
20260502163919 11 159 3.2 4.8 0.18 0.64 0.64 95 1012.1
20260502163415 11 74 4.8 4.8 0.18 0.64 0.64 95 1012.1
20260502162913 11 170 3.2 3.2 0.13 0.61 0.61 95 1012.5
20260502162409 11 156 1.6 1.6 0.13 0.61 0.61 95 1013.0
20260502161907 11 106 1.6 3.2 0.00 0.58 0.58 95 1013.2
20260502161403 11 239 1.6 3.2 0.18 0.58 0.58 95 1013.2
20260502160901 11 172 0.0 1.6 0.13 0.56 0.56 95 1012.7
20260502160359 11 356 3.2 4.8 0.13 0.56 0.56 95 1012.6
20260502151843 11 181 3.2 3.2 0.00 0.48 0.48 95 1012.5
20260502151340 11 235 3.2 3.2 0.00 0.48 0.48 95 1012.5
20260502150837 11 194 0.0 0.0 0.18 0.48 0.48 95 1012.7
20260502150334 11 171 0.0 1.6 0.18 0.48 0.48 95 1012.7
20260502130722 11 269 1.6 1.6 0.00 0.28 0.28 95 1011.7
20260502130219 11 279 3.2 3.2 0.13 0.28 0.28 94 1011.9
20260502123706 11 323 4.8 8.0 0.13 0.23 0.23 94 1011.6
20260502123202 11 334 3.2 3.2 0.00 0.20 0.20 94 1011.5
20260502122658 11 240 3.2 3.2 0.18 0.20 0.20 94 1011.3
20260502122155 11 233 1.6 1.6 0.18 0.20 0.20 94 1011.3
20260502121653 11 199 1.6 1.6 0.13 0.18 0.18 93 1011.4
20260502121151 11 258 3.2 3.2 0.13 0.18 0.18 93 1011.3
20260502120647 11 331 4.8 4.8 0.00 0.15 0.15 93 1011.4
20260502120144 11 222 1.6 3.2 0.18 0.15 0.15 93 1011.4
20260502115642 11 221 1.6 1.6 0.18 0.15 0.15 92 1011.5
20260502115137 11 193 3.2 3.2 0.13 0.13 0.13 92 1011.7
20260502114633 11 211 1.6 1.6 0.30 0.13 0.13 92 1011.3
20260502114131 11 196 0.0 1.6 0.18 0.10 0.10 91 1011.8
20260502113628 11 199 1.6 3.2 0.00 0.08 0.08 91 1011.6
20260502113127 11 227 1.6 1.6 0.00 0.08 0.08 91 1011.5
20260502112624 11 247 3.2 3.2 0.18 0.08 0.08 90 1011.7
20260502112121 11 258 3.2 3.2 0.00 0.05 0.05 90 1011.8
20260502111619 11 306 4.8 4.8 0.00 0.05 0.05 90 1011.7
20260502111116 11 205 1.6 1.6 0.00 0.05 0.05 90 1012.0
20260502110614 11 248 1.6 1.6 0.13 0.05 0.05 90 1011.9
20260502110111 11 198 3.2 4.8 0.13 0.05 0.05 90 1012.0
20260502105608 11 351 8.0 9.7 0.00 0.03 0.03 90 1012.1
20260502105105 11 268 3.2 3.2 0.00 0.03 0.03 91 1011.9
20260502104603 11 211 0.0 1.6 0.18 0.03 0.03 91 1011.9
20260502104100 12 326 4.8 4.8 0.18 0.03 0.03 91 1012.0
20260502103557 12 277 1.6 3.2 0.00 0.00 0.00 91 1011.8
20260502103056 12 323 4.8 4.8 0.00 0.00 0.00 91 1012.1
20260502102551 12 306 1.6 3.2 0.00 0.00 0.00 91 1012.0
20260502102049 12 327 6.4 8.0 0.00 0.00 0.00 91 1011.9
20260502101547 12 249 3.2 3.2 0.00 0.00 0.00 91 1011.9
20260502101045 12 1 4.8 8.0 0.00 0.00 0.00 91 1012.0
20260502100543 12 231 3.2 3.2 0.00 0.00 0.00 91 1012.1
20260502091518 11 331 4.8 4.8 0.00 0.00 0.00 95 1011.9
20260502091015 11 243 1.6 1.6 0.00 0.00 0.00 95 1011.9
20260502090512 11 247 3.2 3.2 0.00 0.00 0.00 95 1011.8
20260502071406 11 171 0.0 0.0 0.00 0.00 0.00 95 1010.7
20260502070905 11 171 0.0 0.0 0.00 0.00 0.00 95 1010.8
20260502070402 11 171 0.0 0.0 0.00 0.00 0.00 95 1010.8
20260502065901 11 172 0.0 0.0 0.00 0.00 0.00 95 1010.9
20260502065358 11 172 0.0 0.0 0.00 0.00 0.00 95 1011.0
20260502064856 11 172 0.0 0.0 0.00 0.00 0.00 95 1010.9
20260502064354 11 172 0.0 0.0 0.00 0.00 0.00 95 1011.2
20260502063850 11 172 0.0 0.0 0.00 0.00 0.00 95 1011.1
20260502063349 11 172 0.0 0.0 0.00 0.00 0.00 95 1011.0